FW7144 Weather Reports


Display with metric or nautical units.
time (UTC)temp
F
wind
direction
speed
MPH
gust
MPH
rain 1hr
in
rain 24hr
in
rain mn
in
humidity
%
barometer
mb
20260502170229 70 267 3.0 18.0 0.00 0.00 0.00 57 1021.7
20260502163805 66 247 0.0 8.0 0.00 0.00 0.00 63 1021.9
20260502163205 66 262 0.0 3.0 0.00 0.00 0.00 64 1021.9
20260502162630 66 226 0.0 5.0 0.00 0.00 0.00 65 1022.0
20260502162005 65 246 0.0 7.0 0.00 0.00 0.00 65 1022.0
20260502161405 66 232 0.0 6.0 0.00 0.00 0.00 67 1022.0
20260502160831 64 297 0.0 7.0 0.00 0.00 0.00 66 1022.1
20260502160205 65 339 0.0 7.0 0.00 0.00 0.00 67 1022.1
20260502152005 62 30 0.0 3.0 0.00 0.00 0.00 72 1022.0
20260502151429 61 142 0.0 4.0 0.00 0.00 0.00 71 1022.0
20260502150805 61 168 0.0 3.0 0.00 0.00 0.00 72 1022.0
20260502150205 62 82 0.0 3.0 0.00 0.00 0.00 72 1021.9
20260502130230 58 135 0.0 4.0 0.00 0.00 0.00 78 1021.0
20260502123804 57 93 0.0 3.0 0.00 0.00 0.00 78 1020.8
20260502123204 57 144 0.0 3.0 0.00 0.00 0.00 78 1020.8
20260502122643 57 121 0.0 3.0 0.00 0.00 0.00 79 1020.7
20260502122005 57 150 0.0 0.0 0.00 0.00 0.00 79 1020.6
20260502121430 57 149 0.0 0.0 0.00 0.00 0.00 79 1020.5
20260502120805 57 164 0.0 0.0 0.00 0.00 0.00 79 1020.5
20260502120205 57 160 0.0 0.0 0.00 0.00 0.00 79 1020.4
20260502115630 57 160 0.0 0.0 0.00 0.00 0.00 79 1020.3
20260502115005 57 167 0.0 0.0 0.00 0.00 0.00 79 1020.3
20260502114405 57 166 0.0 0.0 0.00 0.00 0.00 79 1020.2
20260502113804 57 98 0.0 3.0 0.00 0.00 0.00 79 1020.1
20260502113229 57 101 0.0 0.0 0.00 0.00 0.00 79 1020.0
20260502112604 57 57 0.0 0.0 0.00 0.00 0.00 79 1020.0
20260502112004 57 70 0.0 0.0 0.00 0.00 0.00 79 1019.9
20260502111429 57 70 0.0 3.0 0.00 0.00 0.00 78 1019.9
20260502110805 57 93 0.0 3.0 0.00 0.00 0.00 78 1019.9
20260502110204 57 122 0.0 4.0 0.00 0.00 0.00 78 1019.8
20260502105605 57 134 0.0 5.0 0.00 0.00 0.00 78 1019.8
20260502105004 57 107 3.0 4.0 0.00 0.00 0.00 78 1019.8
20260502104405 57 97 0.0 4.0 0.00 0.00 0.00 79 1019.7
20260502103805 57 118 0.0 4.0 0.00 0.00 0.00 79 1019.7
20260502103205 57 134 0.0 4.0 0.00 0.00 0.00 79 1019.7
20260502102605 57 155 0.0 4.0 0.00 0.00 0.00 79 1019.7
20260502102017 57 150 0.0 5.0 0.00 0.00 0.00 79 1019.7
20260502101405 57 112 0.0 4.0 0.00 0.00 0.00 79 1019.7
20260502100804 57 103 2.0 5.0 0.00 0.00 0.00 79 1019.6
20260502100204 58 110 2.0 6.0 0.00 0.00 0.00 79 1019.5
20260502091454 57 51 3.0 6.0 0.00 0.00 0.00 82 1019.4
20260502090805 57 95 2.0 6.0 0.00 0.00 0.00 81 1019.4
20260502090205 57 87 0.0 5.0 0.00 0.00 0.00 82 1019.3
20260502071404 56 70 3.0 6.0 0.00 0.00 0.00 83 1019.5
20260502070804 56 85 3.0 5.0 0.00 0.00 0.00 83 1019.5
20260502070205 56 94 3.0 4.0 0.00 0.00 0.00 82 1019.6
20260502065605 57 75 2.0 5.0 0.00 0.00 0.00 81 1019.6
20260502065005 57 74 2.0 5.0 0.00 0.00 0.00 82 1019.6
20260502064405 57 76 2.0 5.0 0.00 0.00 0.00 81 1019.6
20260502063805 58 62 2.0 7.0 0.00 0.00 0.00 81 1019.6
20260502063204 57 70 0.0 5.0 0.00 0.00 0.00 83 1019.6
20260502062605 56 107 2.0 4.0 0.00 0.00 0.00 82 1019.7
20260502062004 56 88 2.0 3.0 0.00 0.00 0.00 83 1019.7
20260502061405 55 94 0.0 0.0 0.00 0.00 0.00 83 1019.6
20260502060829 55 115 0.0 0.0 0.00 0.00 0.00 82 1019.5
20260502060205 56 115 0.0 0.0 0.00 0.00 0.00 82 1019.5
20260502055604 57 64 0.0 0.0 0.00 0.00 0.00 81 1019.5
20260502055017 57 160 0.0 0.0 0.00 0.00 0.00 80 1019.3
20260502054404 58 160 0.0 3.0 0.00 0.00 0.00 80 1019.3
20260502053805 59 67 0.0 4.0 0.00 0.00 0.00 80 1019.3
20260502053205 59 84 0.0 7.0 0.00 0.00 0.00 80 1019.1
20260502052604 59 53 2.0 7.0 0.00 0.00 0.00 80 1018.9
20260502052005 59 85 3.0 7.0 0.00 0.00 0.00 79 1018.9
20260502051405 60 79 3.0 6.0 0.00 0.00 0.00 79 1018.9
20260502050829 60 56 2.0 8.0 0.00 0.00 0.00 78 1018.8
20260502050204 60 73 2.0 4.0 0.00 0.00 0.00 78 1018.8
20260502045605 60 22 0.0 4.0 0.00 0.00 0.00 77 1018.6
20260502045005 61 63 0.0 9.0 0.00 0.00 0.00 76 1018.7
20260502044405 61 87 3.0 8.0 0.00 0.00 0.00 76 1018.7
20260502043830 61 94 3.0 9.0 0.00 0.00 0.00 77 1018.5
20260502043230 61 96 2.0 9.0 0.00 0.00 0.00 77 1018.5
20260502042604 61 67 3.0 8.0 0.00 0.00 0.00 76 1018.4
20260502042005 61 66 3.0 11.0 0.00 0.00 0.00 76 1018.3
20260502041405 62 75 4.0 7.0 0.00 0.00 0.00 75 1018.2
20260502040805 62 144 3.0 8.0 0.00 0.00 0.00 74 1018.2
20260502040243 63 63 2.0 10.0 0.00 0.00 0.00 72 1018.3
20260502035605 63 108 4.0 10.0 0.00 0.00 0.00 71 1018.2
20260502035017 64 103 4.0 9.0 0.00 0.00 0.00 70 1018.1
20260502034417 64 113 5.0 11.0 0.00 0.00 0.00 70 1018.1
20260502033806 64 121 3.0 7.0 0.00 0.00 0.00 70 1018.0
20260502033242 64 122 4.0 8.0 0.00 0.00 0.00 70 1017.9
20260502032605 64 98 4.0 7.0 0.00 0.00 0.00 70 1018.0
20260502032005 65 116 0.0 7.0 0.00 0.00 0.00 70 1017.9
20260502031404 65 193 0.0 6.0 0.00 0.00 0.00 67 1017.9
20260502030806 66 97 3.0 9.0 0.00 0.00 0.00 65 1017.8
20260502030205 66 132 3.0 8.0 0.00 0.00 0.00 65 1017.7
20260502025604 65 117 2.0 5.0 0.00 0.00 0.00 67 1017.5
20260502024405 65 164 1.0 8.0 0.00 0.00 0.00 68 1017.3
20260502023805 66 208 0.0 7.0 0.00 0.00 0.00 67 1017.3
20260502023205 66 123 2.0 12.0 0.00 0.00 0.00 66 1017.2
20260502022605 66 160 3.0 11.0 0.00 0.00 0.00 66 1017.1
20260502022005 67 130 2.0 11.0 0.00 0.00 0.00 64 1017.0
20260502021405 67 111 5.0 10.0 0.00 0.00 0.00 61 1016.8
20260502020804 67 123 3.0 11.0 0.00 0.00 0.00 64 1016.7
20260502020217 67 109 6.0 17.0 0.00 0.00 0.00 65 1016.5
20260502015604 67 100 7.0 17.0 0.00 0.00 0.00 66 1016.4
20260502015004 67 98 8.0 16.0 0.00 0.00 0.00 66 1016.3
20260502014405 67 91 8.0 18.0 0.00 0.00 0.00 66 1016.2
20260502013805 67 90 12.0 22.0 0.00 0.00 0.00 65 1015.8
20260502013204 68 91 12.0 21.0 0.00 0.00 0.00 64 1015.9
20260502012604 68 91 9.0 17.0 0.00 0.00 0.00 62 1015.9
20260502012005 69 81 9.0 21.0 0.00 0.00 0.00 62 1015.7
20260502011430 70 111 8.0 16.0 0.00 0.00 0.00 59 1015.7
20260502010805 70 75 9.0 15.0 0.00 0.00 0.00 57 1015.7
20260502010204 71 109 10.0 17.0 0.00 0.00 0.00 56 1015.6
20260502005605 71 101 6.0 17.0 0.00 0.00 0.00 55 1015.5
20260502005005 72 96 8.0 17.0 0.00 0.00 0.00 54 1015.6
20260502004405 72 117 11.0 17.0 0.00 0.00 0.00 54 1015.6
20260502003804 73 112 8.0 18.0 0.00 0.00 0.00 54 1015.5
20260502003230 74 106 9.0 17.0 0.00 0.00 0.00 53 1015.4
20260502002605 74 99 9.0 16.0 0.00 0.00 0.00 51 1015.3
20260502002005 75 104 8.0 14.0 0.00 0.00 0.00 48 1015.3
20260502001404 76 129 9.0 15.0 0.00 0.00 0.00 47 1015.3
20260502000805 77 114 8.0 17.0 0.00 0.00 0.00 45 1015.3
20260502000205 77 101 8.0 14.0 0.00 0.00 0.00 44 1015.2
20260501235604 78 105 8.0 18.0 0.00 0.00 0.00 41 1015.1
20260501234429 79 110 11.0 16.0 0.00 0.00 0.00 40 1015.1
20260501233805 81 72 2.0 15.0 0.00 0.00 0.00 26 1015.0
20260501233205 82 77 6.0 14.0 0.00 0.00 0.00 31 1015.1
20260501232617 81 80 4.0 20.0 0.00 0.00 0.00 25 1015.1
20260501232005 82 93 11.0 18.0 0.00 0.00 0.00 24 1015.0
20260501231405 81 92 6.0 18.0 0.00 0.00 0.00 25 1015.0
20260501230805 81 82 4.0 20.0 0.00 0.00 0.00 25 1015.1
20260501230217 80 82 11.0 17.0 0.00 0.00 0.00 25 1015.1
20260501225605 81 78 5.0 18.0 0.00 0.00 0.00 25 1015.0
20260501225005 81 76 7.0 21.0 0.00 0.00 0.00 24 1015.0
20260501224405 81 63 3.0 14.0 0.00 0.00 0.00 21 1015.0
20260501223805 82 75 3.0 16.0 0.00 0.00 0.00 21 1015.2
20260501223229 81 1 3.0 13.0 0.00 0.00 0.00 20 1015.1
20260501222605 82 148 3.0 18.0 0.00 0.00 0.00 23 1015.1
20260501222005 82 53 8.0 16.0 0.00 0.00 0.00 22 1015.1
20260501221429 82 57 7.0 21.0 0.00 0.00 0.00 23 1015.1
20260501220805 83 93 8.0 17.0 0.00 0.00 0.00 22 1014.9
20260501220205 82 71 6.0 20.0 0.00 0.00 0.00 22 1015.1
20260501215642 83 67 7.0 24.0 0.00 0.00 0.00 21 1015.1
20260501215004 83 77 9.0 22.0 0.00 0.00 0.00 22 1015.3
20260501214405 83 81 5.0 27.0 0.00 0.00 0.00 21 1015.2
20260501213804 83 88 5.0 19.0 0.00 0.00 0.00 22 1015.1
20260501213204 82 80 2.0 15.0 0.00 0.00 0.00 23 1015.2
20260501212604 82 33 0.0 20.0 0.00 0.00 0.00 18 1015.2
20260501212005 80 352 3.0 18.0 0.00 0.00 0.00 17 1015.3
20260501211405 83 334 1.0 21.0 0.00 0.00 0.00 18 1015.3
20260501210805 84 2 4.0 17.0 0.00 0.00 0.00 17 1015.4
20260501210204 84 318 2.0 21.0 0.00 0.00 0.00 17 1015.5
20260501205617 84 31 3.0 17.0 0.00 0.00 0.00 17 1015.6
20260501205005 82 303 3.0 22.0 0.00 0.00 0.00 19 1015.7
20260501204417 83 334 3.0 21.0 0.00 0.00 0.00 18 1015.9
20260501203817 82 335 8.0 20.0 0.00 0.00 0.00 16 1015.9
20260501203205 82 346 3.0 14.0 0.00 0.00 0.00 17 1016.0
20260501202629 81 31 2.0 13.0 0.00 0.00 0.00 17 1016.1
20260501202005 81 3 4.0 21.0 0.00 0.00 0.00 18 1016.1
20260501201404 81 341 3.0 18.0 0.00 0.00 0.00 19 1016.1
20260501200805 81 56 4.0 21.0 0.00 0.00 0.00 16 1016.3
20260501200229 83 7 3.0 18.0 0.00 0.00 0.00 16 1016.3
20260501195604 82 31 2.0 20.0 0.00 0.00 0.00 16 1016.4
20260501195029 82 27 3.0 23.0 0.00 0.00 0.00 14 1016.3
20260501194430 83 0 5.0 16.0 0.00 0.00 0.00 15 1016.5
20260501193805 83 56 2.0 14.0 0.00 0.00 0.00 14 1016.5
20260501193205 83 57 4.0 18.0 0.00 0.00 0.00 14 1016.6
20260501192606 82 334 3.0 25.0 0.00 0.00 0.00 15 1016.6
20260501192004 80 353 4.0 21.0 0.00 0.00 0.00 14 1016.8
20260501191404 81 26 4.0 21.0 0.00 0.00 0.00 14 1016.7
20260501190805 82 6 4.0 18.0 0.00 0.00 0.00 13 1016.7
20260501190205 83 0 4.0 20.0 0.00 0.00 0.00 16 1016.7
20260501185604 83 31 5.0 18.0 0.00 0.00 0.00 15 1016.7
20260501185005 83 9 7.0 16.0 0.00 0.00 0.00 15 1016.6
20260501184404 83 49 5.0 23.0 0.00 0.00 0.00 15 1016.9
20260501183805 82 56 7.0 22.0 0.00 0.00 0.00 13 1016.7
20260501183205 84 59 4.0 18.0 0.00 0.00 0.00 13 1016.9
20260501182605 82 50 0.0 11.0 0.00 0.00 0.00 13 1016.9
20260501182005 80 72 2.0 13.0 0.00 0.00 0.00 16 1017.0
20260501181404 80 27 3.0 16.0 0.00 0.00 0.00 17 1017.1
20260501180804 80 44 3.0 17.0 0.00 0.00 0.00 15 1017.2
20260501180205 80 23 2.0 20.0 0.00 0.00 0.00 15 1017.2
20260501175605 81 65 4.0 20.0 0.00 0.00 0.00 15 1017.3
20260501175004 83 64 5.0 23.0 0.00 0.00 0.00 15 1017.5
20260501174430 84 48 6.0 25.0 0.00 0.00 0.00 15 1017.5
20260501173805 83 62 4.0 23.0 0.00 0.00 0.00 14 1017.4
20260501173205 83 17 3.0 18.0 0.00 0.00 0.00 14 1017.3
20260501172604 82 76 4.0 20.0 0.00 0.00 0.00 15 1017.6
20260501172005 82 293 10.0 13.0 0.00 0.00 0.00 19 1017.7
20260501171405 80 76 2.0 11.0 0.00 0.00 0.00 23 1017.4